Skip Page Navigation
NASA JPL Caltech
NASA Logo - Jet Propulsion Laboratory + View the NASA Portal
+ Near-Earth Object (NEO) Program
Search JPL
JPL Home Earth Solar System Stars & Galaxies Technology
JPL Solar System Dynamics
BODIES ORBITS EPHEMERIDES TOOLS PHYSICAL DATA DISCOVERY FAQ SITE MAP
JPL Small-Body Database Browser
Search: [ help ]  
157747 Mandryka (2006 CS9)
Classification: Main-belt Asteroid          SPK-ID: 2157747
Ephemeris | Orbit Diagram | Orbital Elements | Physical Parameters | Discovery Circumstances | Close-Approach Data ]

[ show orbit diagram ]
Orbital Elements at Epoch 2457000.5 (2014-Dec-09.0) TDB
Reference: JPL 5 (heliocentric ecliptic J2000)
 Element Value Uncertainty (1-sigma)   Units 
e .2035619734312591 9.809e-08  
a 3.122606799246778 5.9617e-08 AU
q 2.486962796942237 3.0953e-07 AU
i 18.20312062106493 1.2963e-05 deg
node 152.9213774147989 3.2788e-05 deg
peri 162.4874693398485 4.7991e-05 deg
M 62.50593080030046 3.1242e-05 deg
tp 2456650.560389220427
(2013-Dec-24.06038922)
0.00017219 JED
period 2015.460905352049
5.52
5.7719e-05
1.58e-07
d
yr
n .1786191927831601 5.1153e-09 deg/d
Q 3.75825080155132 7.1752e-08 AU
  Orbit Determination Parameters
   # obs. used (total)      171  
   data-arc span      4496 days (12.31 yr)  
   first obs. used      2002-06-14  
   last obs. used      2014-10-05  
   planetary ephem.      DE431  
   SB-pert. ephem.      SB431-BIG16  
   condition code      0  
   fit RMS      .62656  
   data source      ORB  
   producer      Otto Matic  
   solution date      2014-Oct-09 18:22:47  

Additional Information
 Earth MOID = 1.48057 AU 
 T_jup = 3.107 
[ show covariance matrix ]

Ephemeris | Orbit Diagram | Orbital Elements | Physical Parameters | Discovery Circumstances | Close-Approach Data ]

Physical Parameter Table
Parameter Symbol Value Units Sigma Reference Notes
absolute magnitude H 15.0 mag n/a MPO310224  

157747 Mandryka           Discovered 2006 Feb. 2 by J.-C. Merlin at Tenagra II.
Nikita Mandryka (b. 1940), a native of Bizerte, Tunisia, studied in France, where he became a well-known cartoonist. He contributed to many comic-strip magazines, including L´Echo des Savanes, Pilote and Pif Gadget. In 1965 he created the character of Concombre Masqué.
NOTE: some special characters may not display properly (any characters within {} are an attempt to place the proper accent above a character)
Reference: 20070730/MPCPages.arcLast Updated: 2007-08-07

[ show close-approach data ]
Ephemeris | Orbit Diagram | Orbital Elements | Physical Parameters | Discovery Circumstances | Close-Approach Data ]
ABOUT SSD CREDITS/AWARDS PRIVACY/COPYRIGHT GLOSSARY LINKS
FirstGov 2014-Oct-21 12:00 UT
(server date/time)  
NASA Home Page
Site Manager:   Donald K. Yeomans
Webmaster  Alan B. Chamberlin